Wind_Speed
9 13 12 11 9 8 9 11 13 13 15 16 17 17 18 19 19 19 18 17 16 13 10 9 11 14 4 3 5 5 10 9 6 6 8 3 3 2 5 5 4 6 8 11 17 21 22
12 10 11 11 10 9 11 12 14 13 14 16 18 19 19 19 19 19 19 18 15 12 9 8 11 13 2 2 2 6 11 6 6 6 5 5 2 0 5 3 3 7 19 10 10 13 12
10 11 11 11 10 8 10 13 13 13 14 16 18 20 21 21 20 20 19 18 14 11 8 7 11 8 0 6 4 9 8 7 3 4 2 1 1 1 3 5 4 11 21 8 10 4 4
10 10 10 10 10 9 11 11 15 14 15 17 20 22 23 23 22 20 19 18 13 9 6 6 9 3 4 2 8 6 6 1 3 2 1 2 2 3 4 3 6 6 5 6 5 6 6
11 10 11 11 10 10 9 10 14 15 15 18 21 23 25 24 23 20 19 16 9 5 4 6 4 3 7 7 2 5 3 3 5 4 3 2 4 4 5 6 5 7 5 7 3 15 2
11 12 12 12 11 12 10 11 16 17 15 18 21 23 24 24 23 20 19 9 1 1 1 1 2 2 5 2 3 6 4 4 2 2 4 7 6 4 4 4 8 6 8 5 5 7 18
16 12 13 12 12 12 13 12 15 14 15 16 20 23 25 24 21 19 17 2 5 4 3 4 2 3 4 9 3 5 6 3 4 7 4 5 8 3 2 2 6 9 8 10 3 4 8
16 16 16 12 12 12 13 14 15 14 14 16 18 23 27 24 20 14 7 4 3 4 5 5 5 4 9 5 4 5 6 4 5 4 2 7 4 2 5 9 17 12 17 4 3 3 6
14 15 14 15 12 14 13 13 14 17 16 14 16 21 26 23 14 4 8 7 7 1 1 5 5 4 4 3 1 3 3 2 6 5 5 7 0 2 9 8 15 5 8 5 6 5 7
14 14 15 15 14 14 15 15 14 15 15 13 15 19 23 23 2 8 1 11 6 1 4 4 4 5 4 3 2 2 1 4 5 7 5 6 4 7 7 7 5 6 5 7 11 3 4
17 16 16 16 16 14 16 16 15 15 14 13 14 16 19 16 10 4 9 11 4 2 3 2 2 2 3 5 2 2 2 5 5 4 5 3 4 6 6 3 3 5 7 7 4 5 5
19 17 17 15 14 17 17 16 13 13 14 13 13 14 17 11 9 5 14 7 1 6 5 3 4 4 5 2 1 2 1 6 4 6 7 3 1 3 3 4 5 8 7 7 5 3 2
17 18 18 19 15 14 16 19 20 10 13 12 12 12 15 13 4 10 12 2 4 5 3 5 5 5 4 4 3 2 3 3 6 6 2 5 4 3 4 6 5 6 5 3 3 2 4
16 16 17 18 17 14 14 16 20 21 11 11 12 14 16 19 14 10 6 4 4 4 5 3 4 6 6 5 3 3 5 3 1 6 5 5 2 4 1 4 6 3 5 4 5 3 2
19 17 15 15 16 16 15 12 14 17 16 11 12 15 13 12 6 6 4 2 8 6 4 7 4 5 4 4 5 4 5 6 6 6 6 5 2 1 3 3 4 3 2 3 6 2 2
20 19 16 16 14 15 15 15 12 13 14 14 6 8 10 12 9 6 3 7 4 3 3 2 6 4 7 7 5 6 7 4 5 5 2 7 6 2 4 4 6 3 5 3 3 3 3
21 20 16 15 14 15 13 14 13 13 13 11 1 3 3 6 12 2 4 6 4 5 4 4 5 4 5 7 8 6 8 1 5 4 3 5 4 2 4 3 7 2 2 5 4 3 4
21 19 19 15 15 15 14 13 12 11 14 6 3 2 2 13 3 0 3 5 2 3 1 4 1 4 7 8 5 5 9 4 7 7 7 1 5 4 2 1 4 4 6 5 5 5 1
20 19 19 18 16 14 14 11 12 10 9 2 2 3 2 3 3 2 4 3 2 2 2 2 2 2 3 7 5 4 5 4 5 6 8 6 1 3 4 5 1 4 4 5 6 3 5
21 21 19 18 15 14 13 13 12 10 9 4 2 1 3 3 2 5 4 4 4 3 3 3 3 2 2 2 5 6 4 1 1 3 7 6 4 6 7 5 5 5 6 8 6 3 4
21 20 20 19 14 15 13 12 11 9 7 4 2 3 2 4 7 4 4 2 6 5 4 3 3 4 2 3 3 4 3 3 5 4 4 4 4 4 3 3 4 5 9 13 11 6 6
20 19 18 18 15 13 14 12 11 10 10 4 2 2 1 2 4 14 8 5 5 5 5 5 3 1 3 3 4 8 7 4 5 1 3 2 3 3 3 1 2 3 8 14 13 5 7
20 19 17 18 16 14 15 14 11 11 12 2 2 3 2 3 5 8 8 12 5 6 4 5 5 4 1 3 3 4 2 5 6 9 6 7 6 3 3 1 1 6 13 15 10 6 12
21 20 17 17 17 15 13 15 13 13 13 8 2 2 2 3 6 8 7 12 15 9 10 2 5 2 3 5 4 7 9 9 7 5 3 7 6 3 3 2 0 7 1 9 17 7 12
20 19 17 18 18 17 15 16 17 15 14 12 7 3 1 2 3 6 9 6 9 10 8 6 7 2 2 4 3 4 4 5 5 3 3 1 5 3 5 3 6 6 5 8 10 13 19
20 18 17 16 14 17 16 15 16 19 15 15 9 8 2 1 3 0 5 6 4 4 4 5 4 2 6 2 3 5 5 6 4 3 4 5 5 4 3 5 7 5 1 5 5 7 8
19 17 17 16 15 15 14 16 14 16 21 17 9 13 2 2 3 2 1 4 5 3 3 2 4 3 6 2 2 3 4 5 7 11 6 3 3 6 2 3 7 7 1 3 5 6 3
19 18 17 17 15 15 15 15 14 15 18 19 15 17 9 1 4 3 2 2 4 3 2 2 2 2 2 5 4 4 3 6 4 7 8 7 7 4 3 3 6 8 4 9 5 4 3
21 18 17 17 17 16 17 16 16 16 18 23 9 17 16 3 3 5 12 11 8 15 3 3 3 1 3 3 1 2 2 1 5 4 2 4 7 7 9 7 4 4 4 3 2 3 3
Wind_Direction
316 315 321 323 321 325 324 340 344 349 346 344 342 340 338 336 334 332 330 333 333 332 336 338 348 355 353 1 258 332 341 352 13 14 36 27 60 92 118 115 91 89 102 68 92 89 83
305 302 316 314 312 316 322 321 336 343 347 344 345 342 338 335 332 330 330 331 330 327 325 333 344 351 353 288 311 329 334 352 10 21 39 42 114 171 98 85 90 94 104 99 73 82 75
309 304 288 311 312 312 339 318 335 341 344 346 344 342 340 336 332 330 327 326 321 312 308 327 335 338 35 231 322 327 329 332 322 343 30 69 87 95 120 101 84 120 104 101 22 345 107
317 307 300 284 308 298 303 314 327 335 343 345 344 342 341 338 332 328 324 320 312 296 293 313 326 339 253 280 310 328 344 338 310 303 184 9 354 96 70 121 41 86 58 100 11 359 6
294 308 296 295 288 312 319 315 319 318 333 338 337 336 337 337 332 328 323 318 304 281 275 306 321 23 279 310 318 335 337 317 359 18 90 90 81 74 34 88 61 17 126 109 66 9 122
291 289 296 293 302 285 300 305 313 324 324 325 334 335 333 334 333 330 327 319 259 208 205 281 280 20 285 281 312 332 4 348 57 21 37 44 51 73 34 96 173 167 111 49 80 21 73
356 331 299 286 290 294 289 301 311 308 314 319 334 337 333 331 334 331 338 62 23 358 17 203 198 253 283 308 307 3 354 15 45 49 74 24 66 89 280 189 123 110 103 108 97 142 69
335 341 343 289 284 292 291 295 302 314 309 309 331 335 335 330 331 330 346 68 67 292 313 258 240 270 266 283 352 337 2 75 62 82 58 42 64 311 88 96 106 106 111 90 104 34 94
337 335 346 357 312 292 294 292 298 300 308 305 322 332 335 330 327 13 67 25 345 58 153 293 209 182 221 158 249 309 44 83 85 59 39 107 68 99 109 93 102 55 120 169 138 128 65
342 336 332 330 336 336 314 296 292 296 305 301 313 329 338 338 360 348 68 352 4 61 54 264 214 252 134 118 313 271 37 117 53 138 100 79 3 97 79 76 83 83 124 117 126 99 149
343 333 329 322 320 320 337 323 298 297 295 295 309 323 334 344 328 328 325 335 351 88 20 220 174 148 115 129 144 311 341 44 121 123 89 245 108 88 69 122 101 133 120 113 117 95 102
332 335 329 321 318 314 312 327 322 290 292 294 300 313 326 334 311 309 330 328 17 46 257 185 138 151 105 90 124 238 18 50 115 70 47 95 84 70 131 45 70 138 76 52 53 84 48
310 321 328 331 313 313 314 309 312 319 288 289 296 301 310 311 274 318 337 23 52 137 295 190 170 146 133 147 159 158 152 120 139 111 92 31 347 1 99 76 45 75 76 45 22 10 212
322 316 312 326 331 317 310 302 304 318 305 286 291 293 297 288 284 289 345 62 106 231 207 110 124 112 160 147 199 136 122 144 64 92 125 142 188 176 158 142 161 106 147 151 173 183 219
324 314 313 311 323 330 328 312 313 301 323 298 289 294 288 293 237 216 84 101 206 212 183 158 84 112 193 196 144 136 161 188 201 175 131 141 52 115 94 114 116 180 104 161 106 22 82
316 314 306 305 312 316 321 325 317 316 304 321 279 299 266 261 187 145 88 231 238 235 330 175 172 150 170 183 143 153 170 196 194 213 148 196 113 153 151 92 33 122 145 83 5 123 257
308 308 305 298 301 305 311 315 319 316 309 316 297 339 282 186 155 100 185 228 273 251 244 197 203 155 175 177 157 175 193 201 178 142 73 141 101 213 107 179 164 125 113 57 108 116 162
304 306 305 299 290 293 299 306 306 311 299 288 129 286 348 162 93 285 186 201 287 285 289 277 249 179 172 163 141 181 184 210 173 152 138 123 117 130 173 259 178 144 160 138 121 248 107
301 303 303 300 292 284 289 296 303 295 298 320 250 235 11 164 180 231 269 272 268 301 318 327 274 66 166 169 132 162 160 332 161 148 160 178 73 91 7 357 3 185 173 119 110 106 200
298 301 296 294 286 271 278 281 290 302 283 282 263 224 320 201 167 170 172 229 219 237 273 299 286 279 145 122 26 151 129 68 81 108 97 89 125 153 182 201 149 182 157 163 133 138 169
299 296 291 289 284 267 262 271 275 295 260 288 251 243 191 199 202 188 191 255 187 210 230 192 285 250 87 103 64 123 106 117 33 113 69 109 148 152 182 208 148 172 172 178 193 167 171
301 297 291 291 287 271 251 257 260 275 222 219 288 289 263 228 165 202 192 218 200 205 196 228 214 299 173 162 180 197 142 176 175 124 107 19 150 97 342 83 202 229 200 194 205 181 253
300 294 286 286 286 273 257 240 247 242 226 165 268 308 297 206 186 190 210 215 208 172 267 243 228 234 174 244 222 227 148 134 166 149 146 135 135 112 232 334 98 316 214 194 203 193 193
293 291 279 278 276 275 265 237 235 240 226 215 209 21 314 293 209 205 197 206 226 217 228 314 206 116 310 121 94 48 59 68 69 54 123 135 112 86 165 53 11 243 278 203 208 202 210
292 283 275 267 266 265 261 249 229 231 232 221 233 188 232 275 341 299 226 210 225 226 227 245 266 191 161 47 66 45 359 29 333 56 73 89 123 101 140 188 288 266 198 171 177 246 214
292 284 276 274 276 264 266 267 251 225 223 221 225 222 228 135 237 6 324 235 172 176 181 231 246 147 68 83 110 164 181 165 191 95 39 67 57 111 116 146 203 242 299 151 121 283 220
292 286 279 276 273 272 265 258 260 240 224 210 229 224 207 275 270 207 256 326 337 156 165 202 188 173 147 143 123 165 212 174 162 158 159 119 34 146 149 192 283 237 209 185 110 238 329
288 284 278 275 273 271 268 267 264 238 236 207 217 210 196 253 277 274 166 199 340 335 136 341 74 327 64 172 160 208 167 202 134 157 169 152 146 179 95 86 265 175 104 172 219 288 276
279 280 279 276 274 269 265 262 261 256 238 208 204 208 205 211 260 286 275 258 221 219 264 295 296 262 202 148 211 107 153 137 150 191 169 181 175 176 181 203 240 213 194 202 180 245 286
Height
843 843 842 840 838 836 835 834 832 829 828 826 823 820 818 815 812 809 807 804 801 799 796 795 793 791 790 791 788 784 783 782 781 780 780 780 781 782 790 789 790 800 811 815 818 822 825
843 842 841 840 838 836 836 834 832 829 827 826 823 820 817 813 811 808 805 802 799 798 797 796 794 792 792 795 785 784 783 781 781 781 781 781 783 783 786 790 791 801 811 823 828 828 831
841 840 839 839 837 836 835 834 831 829 827 825 822 819 816 812 809 805 803 800 799 797 796 796 794 793 793 789 784 783 782 781 782 781 780 782 781 782 784 793 796 805 818 825 836 832 833
840 839 838 838 836 835 834 833 832 829 826 824 822 819 815 811 808 804 801 798 796 796 795 795 795 794 792 784 784 782 781 781 782 781 780 781 781 782 786 791 803 813 819 834 840 834 837
839 838 837 836 835 835 833 832 830 828 826 824 821 818 815 810 806 802 799 796 794 793 794 794 795 795 793 784 783 782 781 780 779 779 780 781 782 792 793 806 819 826 834 835 839 842 840
836 836 836 835 834 833 832 830 829 827 826 823 821 817 814 809 805 800 795 793 792 792 793 793 795 799 787 786 783 781 780 779 779 780 782 786 795 805 811 812 826 825 842 852 850 857 852
836 834 833 832 832 831 830 829 827 826 824 823 820 816 812 807 803 799 794 792 796 797 793 792 792 793 788 785 783 780 779 779 780 786 797 798 811 818 808 805 810 824 836 851 859 858 867
837 834 832 830 830 829 828 827 826 824 823 822 819 816 811 806 802 799 797 796 802 806 802 789 789 790 787 786 786 781 780 783 786 799 795 809 818 807 808 809 811 822 837 857 860 858 867
837 834 832 830 828 827 826 824 823 823 821 820 818 815 811 805 801 800 800 802 800 799 805 791 786 786 785 786 788 786 782 786 793 801 806 815 811 806 808 816 817 832 840 847 850 864 870
836 834 832 831 828 826 824 823 821 820 819 818 817 815 811 804 805 802 801 801 800 799 818 792 787 782 782 784 790 784 784 787 796 810 807 814 811 813 817 820 822 836 833 839 850 853 866
835 833 831 830 828 826 824 821 819 819 817 817 816 814 812 809 807 805 804 800 799 799 850 788 785 779 781 788 789 788 785 786 799 803 807 820 816 819 823 821 821 834 833 839 847 858 867
835 833 831 828 826 824 822 821 818 817 816 815 814 813 811 809 806 805 802 800 800 835 837 787 782 785 787 787 790 789 788 787 795 807 812 816 813 815 819 822 822 830 838 847 857 864 888
834 832 830 827 824 823 821 819 819 815 814 813 813 812 811 809 805 804 802 802 831 852 788 787 786 786 789 792 793 792 795 799 807 821 824 824 824 818 818 827 828 835 847 872 874 892 884
832 829 828 825 823 821 819 817 816 815 813 812 811 810 808 806 804 804 804 813 854 801 789 776 781 788 792 791 794 794 799 807 802 810 829 839 840 822 818 825 835 838 844 861 853 874 863
830 828 826 824 822 820 817 816 815 813 813 810 809 807 804 800 801 804 808 848 824 796 777 778 781 789 792 789 793 794 802 810 804 804 818 827 833 820 819 821 828 840 858 847 860 868 871
828 826 823 822 820 819 817 815 813 813 811 810 807 806 800 798 800 803 815 809 797 786 777 774 780 783 796 795 793 798 805 798 799 799 801 814 829 821 824 822 832 831 843 860 875 896 880
826 823 820 819 818 818 815 814 813 812 810 809 807 808 797 797 799 803 820 810 791 781 780 777 776 784 783 790 793 801 801 794 795 799 800 810 822 830 824 830 841 842 849 865 868 876 882
822 820 818 816 815 815 813 813 811 811 810 809 806 813 797 799 810 811 810 796 784 779 774 776 773 772 779 784 789 792 797 791 792 795 802 804 825 845 828 825 827 832 843 851 895 906 908
818 816 813 812 812 812 811 811 810 810 810 808 805 805 797 798 821 818 806 795 786 783 778 777 774 773 770 779 785 784 788 794 792 793 800 804 833 850 837 837 829 831 840 848 862 880 900
814 811 810 809 808 808 808 809 809 808 808 808 805 807 802 796 802 799 796 792 791 782 783 780 777 772 768 775 785 792 790 793 792 792 794 799 822 823 836 822 829 828 837 843 843 870 865
809 808 806 805 804 804 805 806 807 807 806 808 803 796 793 788 793 797 793 788 787 785 783 779 777 775 771 792 788 790 793 795 797 795 801 803 813 815 816 815 819 822 829 837 834 839 842
805 803 802 801 800 801 802 803 804 805 805 807 804 794 793 789 788 790 790 789 786 784 783 783 782 774 774 774 776 791 790 793 791 800 803 811 828 822 851 815 814 815 825 827 827 832 833
801 799 798 797 796 797 797 799 801 803 804 802 803 800 798 784 785 787 783 782 783 783 781 779 779 780 778 775 774 775 781 783 784 795 806 811 826 834 841 823 816 833 812 819 816 818 815
796 794 793 793 793 793 793 795 797 799 801 803 801 802 800 789 783 780 778 780 780 781 783 777 780 781 779 777 778 782 787 790 792 797 798 811 820 841 865 832 867 804 795 798 799 802 807
791 790 789 788 789 789 790 790 792 795 798 799 801 802 800 800 795 786 780 777 778 778 780 782 781 780 777 779 794 805 816 806 813 796 799 802 817 856 855 861 815 790 797 800 802 793 790
786 785 784 784 785 785 786 786 788 791 794 796 798 800 800 799 795 792 789 777 780 783 784 780 778 778 782 792 801 819 811 799 806 802 805 808 812 827 875 860 838 790 784 788 787 797 776
781 780 780 780 781 781 782 783 784 786 789 792 794 797 799 796 793 791 792 787 778 776 781 777 775 779 778 799 828 814 794 779 792 796 808 816 841 846 880 860 815 790 783 785 808 792 773
776 776 776 776 776 777 778 779 780 782 784 786 789 793 797 796 793 790 789 789 790 785 780 778 778 779 787 789 799 799 798 784 780 784 789 798 825 843 848 866 819 781 786 787 782 775 773
771 771 771 771 771 772 773 774 775 776 779 781 785 788 793 795 795 790 788 787 787 790 794 787 777 773 777 781 792 792 786 793 778 792 782 788 789 799 798 798 778 776 774 773 776 776 771